KTPA

Tampa International Airport

Airport
ICAO code
KTPA
Summary
ICAO Region
NAM
ICAO Territory
Location

Tampa, Florida,

Coordinates
27° 58' 37" N , 82° 32' 0" W
KCC
Metar
Observation
KTPA 302053Z 05006KT 10SM FEW065 29/13 A3013 RMK AO2 SLP204 T02940128 56016
Station
Tampa, Tampa International Airport
Date/Time
2023-03-30 20:53:00
Wind direction
50°
Wind speed
06 kts
Lowest cloud amount
few clouds
Temperature
29.4°C
Dew point
12.8°C
Humidity
36%
Weather condition
n/a

Description

International airport 6 nm west of Tampa, Florida, USA.

Climatology

Humid “subtropical” climate (Köppen climate classification Cfa) - characterized by hot, humid summers and cool winters. Significant amounts of precipitation occur in all seasons in most areas.

Runways

Designator Length Width Surface Rops
9/27 2133 46 PEM Yes/Yes
18L/36R 2530 46 PEM Yes/Yes
18R/36L 3353 46 CON Yes/Yes

Airport map

Aerial View

SKYbrary Partners:

Safety knowledge contributed by: